Location: Godiavel Galaoual
(15.2485°N, 12.6604°W)
Time: 09:19:36
(UTC+00:00)

Hubble Space Telescope - Pass Details

Date: 23 May 2021
Orbit: 535 x 539 km, 28.5° (Epoch: 19 June)

Event Time Altitude Azimuth Distance (km) Brightness Sun altitude
Exits shadow 04:35:09 17° 332° (NNW) 1,404 2.9 -23.6°
Maximum altitude 04:36:00 18° 347° (NNW) 1,360 3.0 -23.4°
Drops below altitude 10° 04:38:49 10° 31° (NNE) 1,776 4.2 -22.8°
Sets 04:41:41 0° 51° (NE) 2,665 5.8 -22.2°
